LZ2SLL-13 Weather Reports


time (UTC)temp
F
wind
direction
speed
knots
gust
knots
rain 1hr
in
rain 24hr
in
rain mn
in
humidity
%
barometer
mb
20260510051511 57 251 1.7 2.6 0.00 0.00 0.00 95
20260510051010 57 251 1.7 2.6 0.00 0.00 0.00 95
20260510050510 57 251 1.7 2.6 0.00 0.00 0.00 95
20260510050009 57 251 1.7 2.6 0.00 0.00 0.00 95
20260510045508 57 251 1.7 2.6 0.00 0.00 0.00 95
20260510045008 57 251 1.7 2.6 0.00 0.00 0.00 95
20260510044507 57 251 1.7 2.6 0.00 0.00 0.00 95
20260510044007 57 251 1.7 2.6 0.00 0.00 0.00 95
20260510043506 57 251 1.7 2.6 0.00 0.00 0.00 95
20260510043005 57 251 1.7 2.6 0.00 0.00 0.00 95
20260510042505 57 251 1.7 2.6 0.00 0.00 0.00 95
20260510042004 57 251 1.7 2.6 0.00 0.00 0.00 95
20260510041503 57 251 1.7 2.6 0.00 0.00 0.00 95
20260510041003 57 251 1.7 2.6 0.00 0.00 0.00 95
20260510040500 57 251 1.7 2.6 0.00 0.00 0.00 95
20260510040000 57 251 1.7 2.6 0.00 0.00 0.00 95
20260510035459 57 251 1.7 2.6 0.00 0.00 0.00 95
20260510034958 57 251 1.7 2.6 0.00 0.00 0.00 95
20260510034458 57 251 1.7 2.6 0.00 0.00 0.00 95
20260510033957 57 251 1.7 2.6 0.00 0.00 0.00 95
20260510033456 57 251 1.7 2.6 0.00 0.00 0.00 95
20260510032956 57 251 1.7 2.6 0.00 0.00 0.00 95
20260510032455 57 251 1.7 2.6 0.00 0.00 0.00 95
20260510031954 57 206 1.7 1.7 0.00 0.00 0.00 95
20260510031454 57 249 1.7 2.6 0.00 0.00 0.00 95
20260510030953 57 270 2.6 2.6 0.00 0.00 0.00 95
20260510030452 57 266 3.5 3.5 0.00 0.00 0.00 95
20260510025951 58 251 3.5 5.2 0.00 0.00 0.00 94
20260510025451 58 264 4.3 4.3 0.00 0.00 0.00 92
20260510024950 58 271 4.3 5.2 0.00 0.00 0.00 92
20260510024450 58 263 3.5 4.3 0.00 0.00 0.00 93
20260510023949 58 250 1.7 2.6 0.00 0.00 0.00 93
20260510023448 58 282 2.6 4.3 0.00 0.00 0.00 94
20260510022948 57 350 1.7 2.6 0.00 0.00 0.00 96
20260510022447 57 350 1.7 2.6 0.00 0.00 0.00 96
20260510021946 57 350 1.7 2.6 0.00 0.00 0.00 96
20260510021446 57 350 1.7 2.6 0.00 0.00 0.00 96
20260510020945 57 350 1.7 2.6 0.00 0.00 0.00 96
20260510020444 57 350 1.7 2.6 0.00 0.00 0.00 96
20260510015944 57 350 1.7 2.6 0.00 0.00 0.00 96
20260510015443 57 350 1.7 2.6 0.00 0.00 0.00 96
20260510014942 57 350 1.7 2.6 0.00 0.00 0.00 96
20260510014441 57 350 1.7 2.6 0.00 0.00 0.00 96
20260510013941 57 350 1.7 2.6 0.00 0.00 0.00 96
20260510013440 57 350 1.7 2.6 0.00 0.00 0.00 96
20260510012939 57 350 1.7 2.6 0.00 0.00 0.00 96
20260510012439 57 350 1.7 2.6 0.00 0.00 0.00 96
20260510011938 57 350 1.7 2.6 0.00 0.00 0.00 96
20260510011437 57 350 1.7 2.6 0.00 0.00 0.00 96
20260510010436 57 350 1.7 2.6 0.00 0.00 0.00 96
20260510005935 57 350 1.7 2.6 0.00 0.00 0.00 96
20260510005435 57 350 1.7 2.6 0.00 0.00 0.00 96
20260510004934 57 350 1.7 2.6 0.00 0.00 0.00 96
20260510004433 57 350 1.7 2.6 0.00 0.00 0.00 96
20260510003933 57 350 1.7 2.6 0.00 0.00 0.00 96
20260510003432 57 350 1.7 2.6 0.00 0.00 0.00 96
20260510002931 57 350 1.7 2.6 0.00 0.00 0.00 96
20260510002430 57 350 1.7 2.6 0.00 0.00 0.00 96
20260510001930 57 340 1.7 1.7 0.00 0.00 0.00 96
20260510001429 57 270 2.6 1.7 0.00 0.00 0.00 96
20260510000928 57 253 1.7 2.6 0.00 0.00 0.00 96
20260510000428 57 322 2.6 3.5 0.00 0.00 0.00 96
20260509235927 57 269 1.7 3.5 0.00 0.00 0.00 96
20260509235426 57 263 3.5 4.3 0.00 0.00 0.00 96
20260509234926 57 271 3.5 3.5 0.00 0.00 0.00 96
20260509234425 57 273 3.5 3.5 0.00 0.00 0.00 95
20260509233924 58 258 3.5 5.2 0.00 0.00 0.00 95
20260509233423 58 181 1.7 2.6 0.00 0.00 0.00 94
20260509232923 58 246 2.6 3.5 0.00 0.00 0.00 94
20260509232422 58 347 1.7 1.7 0.00 0.00 0.00 94
20260509231922 58 287 3.5 3.5 0.00 0.00 0.00 93
20260509231421 58 270 4.3 4.3 0.00 0.00 0.00 92
20260509230920 58 230 1.7 1.7 0.00 0.00 0.00 92
20260509230419 58 300 2.6 2.6 0.00 0.00 0.00 92
20260509225919 58 307 1.7 1.7 0.00 0.00 0.00 92
20260509225418 58 259 2.6 1.7 0.00 0.00 0.00 93
20260509224918 58 250 2.6 4.3 0.00 0.00 0.00 93
20260509224417 58 249 2.6 3.5 0.00 0.00 0.00 93
20260509223916 58 269 2.6 4.3 0.00 0.00 0.00 94
20260509223416 58 246 3.5 4.3 0.00 0.00 0.00 94
20260509222915 58 256 2.6 3.5 0.00 0.00 0.00 94
20260509222414 57 283 1.7 1.7 0.00 0.00 0.00 95
20260509221914 57 238 3.5 3.5 0.00 0.00 0.00 95
20260509221413 57 320 1.7 1.7 0.00 0.00 0.00 95
20260509220913 57 261 1.7 2.6 0.00 0.00 0.00 95
20260509220412 57 228 1.7 3.5 0.00 0.00 0.00 96
20260509215911 57 251 2.6 3.5 0.00 0.00 0.00 97
20260509215410 57 263 2.6 4.3 0.00 0.00 0.00 97
20260509214910 57 313 1.7 3.5 0.00 0.00 0.00 97
20260509214409 57 270 1.7 2.6 0.00 0.00 0.00 97
20260509213908 57 239 3.5 3.5 0.00 0.00 0.00 97
20260509213408 57 240 2.6 2.6 0.00 0.00 0.00 96
20260509212907 57 230 1.7 1.7 0.00 0.00 0.00 96
20260509212406 57 254 2.6 1.7 0.00 0.00 0.00 96
20260509211906 57 245 1.7 2.6 0.00 0.00 0.00 95
20260509211405 57 190 0.9 1.7 0.00 0.00 0.00 95
20260509210905 57 196 0.9 0.9 0.00 0.00 0.00 94
20260509210404 57 198 1.7 1.7 0.00 0.00 0.00 94
20260509205903 58 157 0.9 0.9 0.00 0.00 0.00 93
20260509205403 58 194 0.9 1.7 0.00 0.00 0.00 92
20260509204902 58 175 0.9 0.9 0.00 0.00 0.00 92
20260509204401 58 177 0.0 0.9 0.00 0.00 0.00 91
20260509203901 58 175 0.0 0.0 0.00 0.00 0.00 91
20260509203400 58 176 0.9 0.9 0.00 0.00 0.00 91
20260509202859 58 175 0.9 0.9 0.00 0.00 0.00 90
20260509202359 58 172 0.9 0.9 0.00 0.00 0.00 90
20260509201858 58 163 0.9 0.9 0.00 0.00 0.00 89
20260509201358 58 152 0.9 0.9 0.00 0.00 0.00 87
20260509200857 58 123 0.0 0.0 0.00 0.00 0.00 87
20260509200356 58 132 0.0 0.0 0.00 0.00 0.00 87
20260509195856 58 132 0.0 0.0 0.00 0.00 0.00 86
20260509195355 58 153 0.9 0.9 0.00 0.00 0.00 86
20260509194854 59 98 0.0 0.0 0.00 0.00 0.00 85
20260509194354 59 98 0.0 0.0 0.00 0.00 0.00 85
20260509193853 59 97 0.0 0.0 0.00 0.00 0.00 86
20260509193352 59 98 0.0 0.0 0.00 0.00 0.00 85
20260509192851 59 98 0.0 0.0 0.00 0.00 0.00 85
20260509192351 59 97 0.0 0.0 0.00 0.00 0.00 85
20260509191850 59 110 0.0 0.0 0.00 0.00 0.00 85
20260509191349 59 63 0.9 0.9 0.00 0.00 0.00 85
20260509190849 59 93 0.9 0.9 0.00 0.00 0.00 85
20260509190348 59 92 0.0 0.9 0.00 0.00 0.00 85
20260509185847 59 114 0.9 0.9 0.00 0.00 0.00 85
20260509185347 59 110 0.0 0.0 0.00 0.00 0.00 85
20260509184846 59 71 0.9 0.9 0.00 0.00 0.00 85
20260509184345 59 43 0.0 0.0 0.00 0.00 0.00 85
20260509183844 59 90 0.9 1.7 0.00 0.00 0.00 85
20260509183344 59 71 0.9 0.9 0.00 0.00 0.00 85
20260509182843 59 12 0.9 1.7 0.00 0.00 0.00 86
20260509182342 59 88 0.9 1.7 0.00 0.00 0.00 85
20260509181341 59 97 0.9 1.7 0.00 0.00 0.00 86
20260509180840 59 136 0.0 0.0 0.00 0.00 0.00 86
20260509180339 59 12 0.9 0.9 0.00 0.00 0.00 86
20260509175838 59 101 0.9 1.7 0.00 0.00 0.00 85
20260509175337 59 91 0.0 0.9 0.00 0.00 0.00 85
20260509174837 59 20 0.0 0.9 0.00 0.00 0.00 85
20260509174336 59 43 0.9 2.6 0.00 0.00 0.00 85
20260509173835 59 169 0.9 1.7 0.00 0.00 0.00 85
20260509173334 59 45 1.7 1.7 0.00 0.00 0.00 85
20260509172834 59 2 1.7 1.7 0.00 0.00 0.00 85
20260509172332 59 55 0.9 1.7 0.00 0.00 0.00 84
20260509171832 59 17 0.9 2.6 0.00 0.00 0.00 84
20260509171331 59 18 0.9 1.7 0.00 0.00 0.00 84
20260509170830 59 63 1.7 1.7 0.00 0.00 0.00 83
20260509170330 59 8 1.7 1.7 0.00 0.00 0.00 82
20260509165829 59 44 0.9 1.7 0.00 0.00 0.00 82
20260509165328 59 74 1.7 1.7 0.00 0.00 0.00 83
20260509164828 60 75 1.7 1.7 0.00 0.00 0.00 82
20260509164327 60 56 0.9 0.9 0.00 0.00 0.00 83
20260509163826 60 90 0.9 0.9 0.00 0.00 0.00 82
20260509163326 60 77 1.7 1.7 0.00 0.00 0.00 83
20260509162825 60 54 0.9 1.7 0.00 0.00 0.00 83
20260509162324 60 84 0.9 0.9 0.00 0.00 0.00 82
20260509161824 60 61 0.9 0.9 0.00 0.00 0.00 82
20260509161323 60 10 0.9 1.7 0.00 0.00 0.00 81
20260509160822 60 79 0.9 1.7 0.00 0.00 0.00 81
20260509160322 60 94 0.9 0.9 0.00 0.00 0.00 81
20260509155821 60 72 0.9 1.7 0.00 0.00 0.00 81
20260509155320 60 70 0.9 1.7 0.00 0.00 0.00 80
20260509154820 61 64 0.9 0.9 0.00 0.00 0.00 80
20260509154319 61 90 1.7 1.7 0.00 0.00 0.00 80
20260509153818 60 46 0.9 1.7 0.00 0.00 0.00 80
20260509153318 60 25 1.7 2.6 0.00 0.00 0.00 81
20260509152817 61 31 0.9 0.9 0.00 0.00 0.00 79
20260509152316 61 109 0.9 0.9 0.00 0.00 0.00 78
20260509151816 61 136 0.9 0.9 0.00 0.00 0.00 77
20260509151315 61 101 0.0 0.9 0.00 0.00 0.00 77
20260509150814 61 149 0.9 0.9 0.00 0.00 0.00 77
20260509150314 61 147 0.9 0.0 0.00 0.00 0.00 79
20260509145813 61 170 0.0 1.7 0.00 0.00 0.00 80
20260509145312 60 87 1.7 0.9 0.00 0.00 0.00 82
20260509144811 60 79 0.9 2.6 0.00 0.00 0.00 83
20260509144311 60 167 0.9 0.9 0.00 0.00 0.00 83
20260509143810 60 47 1.7 2.6 0.00 0.00 0.00 84
20260509143309 60 143 0.9 1.7 0.00 0.00 0.00 84
20260509142809 61 25 0.9 1.7 0.00 0.00 0.00 84
20260509142308 61 356 1.7 1.7 0.00 0.00 0.00 83
20260509141807 61 173 0.0 0.9 0.00 0.00 0.00 83
20260509141307 61 166 0.9 0.9 0.00 0.00 0.00 82
20260509140806 61 107 0.9 0.9 0.00 0.00 0.00 83
20260509140305 61 145 0.9 1.7 0.00 0.00 0.00 82
20260509135805 62 143 0.9 0.9 0.00 0.00 0.00 82
20260509135306 62 202 1.7 1.7 0.00 0.00 0.00 81
20260509134803 62 134 0.9 1.7 0.00 0.00 0.00 81
20260509134303 63 158 0.9 0.9 0.00 0.00 0.00 79
20260509133802 63 180 1.7 0.9 0.00 0.00 0.00 78
20260509133301 63 122 0.9 3.5 0.00 0.00 0.00 78
20260509132801 64 195 0.9 1.7 0.00 0.00 0.00 77
20260509132300 64 129 0.9 1.7 0.00 0.00 0.00 76
20260509131759 64 180 0.9 1.7 0.00 0.00 0.00 76
20260509131259 64 196 1.7 4.3 0.00 0.00 0.00 76
20260509130758 64 124 1.7 4.3 0.00 0.00 0.00 76
20260509130257 65 161 3.5 3.5 0.00 0.00 0.00 76
20260509125757 65 73 2.6 2.6 0.00 0.00 0.00 75
20260509125256 65 166 1.7 1.7 0.00 0.00 0.00 74
20260509124755 66 186 1.7 1.7 0.00 0.00 0.00 72
20260509124255 67 82 0.9 3.5 0.00 0.00 0.00 71
20260509123754 67 86 1.7 1.7 0.00 0.00 0.00 70
20260509123253 68 241 0.9 2.6 0.00 0.00 0.00 68
20260509122752 68 175 0.9 1.7 0.00 0.00 0.00 68
20260509122252 67 157 1.7 2.6 0.00 0.00 0.00 68
20260509121751 67 180 1.7 5.2 0.00 0.00 0.00 70
20260509121250 67 269 1.7 2.6 0.00 0.00 0.00 68
20260509120750 67 86 1.7 4.3 0.00 0.00 0.00 68
20260509120249 67 118 0.9 1.7 0.00 0.00 0.00 68
20260509115748 67 181 1.7 1.7 0.00 0.00 0.00 67
20260509115248 67 126 0.9 0.9 0.00 0.00 0.00 68
20260509114747 68 62 1.7 3.5 0.00 0.00 0.00 67
20260509114246 68 106 0.9 0.9 0.00 0.00 0.00 66
20260509113746 68 139 2.6 3.5 0.00 0.00 0.00 66
20260509113245 67 126 2.6 2.6 0.00 0.00 0.00 67
20260509112744 68 177 1.7 3.5 0.00 0.00 0.00 65
20260509112243 68 117 0.9 3.5 0.00 0.00 0.00 65
20260509111743 67 173 1.7 2.6 0.00 0.00 0.00 68
20260509111242 67 42 0.9 1.7 0.00 0.00 0.00 68
20260509110741 66 186 1.7 0.9 0.00 0.00 0.00 68
20260509110241 67 207 0.9 1.7 0.00 0.00 0.00 69
20260509105740 65 160 1.7 2.6 0.00 0.00 0.00 71
20260509105239 65 191 3.5 4.3 0.00 0.00 0.00 69
20260509104738 66 132 2.6 4.3 0.00 0.00 0.00 69
20260509104238 66 185 2.6 3.5 0.00 0.00 0.00 67
20260509103737 67 38 0.9 1.7 0.00 0.00 0.00 67
20260509103236 66 103 2.6 1.7 0.00 0.00 0.00 66
20260509102736 65 207 3.5 4.3 0.00 0.00 0.00 68
20260509102235 66 195 3.5 4.3 0.00 0.00 0.00 67
20260509101734 66 187 2.6 5.2 0.00 0.00 0.00 67
20260509101233 66 133 4.3 4.3 0.00 0.00 0.00 65
20260509100733 66 184 2.6 4.3 0.00 0.00 0.00 66
20260509100232 67 165 3.5 5.2 0.00 0.00 0.00 65
20260509095731 66 176 2.6 3.5 0.00 0.00 0.00 66
20260509095230 64 160 3.5 4.3 0.00 0.00 0.00 66
20260509094730 65 181 4.3 5.2 0.00 0.00 0.00 66
20260509094229 65 181 4.3 4.3 0.00 0.00 0.00 66
20260509093729 65 185 2.6 3.5 0.00 0.00 0.00 66
20260509093228 66 201 0.9 2.6 0.00 0.00 0.00 66
20260509092727 65 220 3.5 3.5 0.00 0.00 0.00 69
20260509092227 64 208 3.5 5.2 0.00 0.00 0.00 69
20260509091726 64 169 4.3 6.1 0.00 0.00 0.00 67
20260509091225 65 191 1.7 3.5 0.00 0.00 0.00 68
20260509090725 65 86 2.6 2.6 0.00 0.00 0.00 68
20260509090224 63 173 2.6 3.5 0.00 0.00 0.00 71
20260509085723 63 195 1.7 4.3 0.00 0.00 0.00 72
20260509085223 63 167 2.6 1.7 0.00 0.00 0.00 72
20260509084722 63 178 0.9 1.7 0.00 0.00 0.00 71
20260509084222 63 137 0.9 0.9 0.00 0.00 0.00 72
20260509083721 62 148 0.9 1.7 0.00 0.00 0.00 75
20260509083220 61 90 1.7 2.6 0.00 0.00 0.00 74
20260509082719 61 140 1.7 3.5 0.00 0.00 0.00 76
20260509082219 61 104 0.0 0.0 0.00 0.00 0.00 77
20260509081718 60 172 1.7 1.7 0.00 0.00 0.00 78
20260509081217 60 95 0.9 0.9 0.00 0.00 0.00 78
20260509080717 59 127 0.0 0.9 0.00 0.00 0.00 80
20260509080216 59 167 1.7 1.7 0.00 0.00 0.00 81
20260509075715 60 150 0.9 0.9 0.00 0.00 0.00 81
20260509075214 60 168 0.9 0.0 0.00 0.00 0.00 81
20260509074714 60 109 0.9 0.9 0.00 0.00 0.00 82
20260509074213 60 142 0.9 1.7 0.00 0.00 0.00 82
20260509073713 60 145 0.9 1.7 0.00 0.00 0.00 81
20260509073212 60 166 2.6 3.5 0.00 0.00 0.00 80
20260509072711 60 143 0.9 0.9 0.00 0.00 0.00 80
20260509072211 60 160 2.6 2.6 0.00 0.00 0.00 80
20260509071710 60 182 1.7 2.6 0.00 0.00 0.00 79
20260509071209 61 153 0.9 0.9 0.00 0.00 0.00 79
20260509070709 60 66 2.6 2.6 0.00 0.00 0.00 78
20260509070208 61 105 0.9 1.7 0.00 0.00 0.00 78
20260509065707 61 86 0.9 1.7 0.00 0.00 0.00 78
20260509065206 60 144 0.9 1.7 0.00 0.00 0.00 77
20260509064706 61 139 0.0 0.0 0.00 0.00 0.00 77
20260509064200 60 175 2.6 3.5 0.00 0.00 0.00 78
20260509063659 60 173 2.6 4.3 0.00 0.00 0.00 76
20260509063159 60 125 0.9 1.7 0.00 0.00 0.00 76
20260509062658 60 139 3.5 4.3 0.00 0.00 0.00 77
20260509062157 61 179 0.9 1.7 0.00 0.00 0.00 75
20260509061657 61 181 2.6 4.3 0.00 0.00 0.00 73
20260509061156 62 117 1.7 2.6 0.00 0.00 0.00 74
20260509060655 61 90 1.7 3.5 0.00 0.00 0.00 74
20260509060155 61 154 3.5 4.3 0.00 0.00 0.00 73
20260509055654 61 117 1.7 2.6 0.00 0.00 0.00 73
20260509055153 61 180 3.5 4.3 0.00 0.00 0.00 74
20260509054645 61 147 0.0 0.0 0.00 0.00 0.00 76
20260509054144 60 195 1.7 1.7 0.00 0.00 0.00 77
20260509053644 60 140 0.0 0.0 0.00 0.00 0.00 76
20260509053143 60 159 0.9 0.9 0.00 0.00 0.00 80
20260509052642 59 90 0.0 0.9 0.00 0.00 0.00 82
20260509052142 59 147 0.9 0.9 0.00 0.00 0.00 83